Flag for Cambodia Weather past 2 weeks in Battambang, Cambodia

Now
91 °F

Scattered clouds.


Feels Like: 100 °F
Forecast: 80 / 98 °F
Wind: 8 mph from West

Location: Siemreap

Current Time: May 30, 2015 at 11:35:49 AM

Latest Report: May 30, 2015 at 11:00 AM


Visibility: N/A

Pressure: 29.80 "Hg

Humidity: 56%

Dew point: 73 °F

Location of BattambangLocation

Historic Weather in Battambang — Graph

°F

Battambang temperature yesterday

Maximum temperature yesterday: 97 °F (at 1:00 PM)
Minimum temperature yesterday: 82 °F (at 12:00 AM)
Average temperature yesterday: 88 °F

Past Weeks' High & Low Weather Summary

 TemperatureHumidityPressure
High100 °F (May 16, 1:00 PM)100% (May 18, 8:30 AM)29.86 "Hg (May 18, 8:30 AM)
Low37 °F (May 26, 12:30 PM)31% (May 15, 2:30 PM)29.59 "Hg (May 28, 4:30 PM)
Average89 °F66%29.73 "Hg
* Reported May 15 9:00 AM — May 30 9:30 AM, Battambang, Weather by CustomWeather, © 2015

Note: Actual official high and low records may vary slightly from our data, if they occured in-between our weather recording intervals... More about our weather records

Advertising

Battambang weather history for previous 24 hours

 ConditionsComfort  
Time TempWeatherWind HumidityBarometerVisibility
9:30 AM
Sat, May 30
90 °FPassing clouds.7 mph63%29.83 "HgN/A
9:00 AM90 °FPassing clouds.9 mph63%29.83 "HgN/A
8:30 AM88 °FPassing clouds.6 mph70%29.83 "HgN/A
8:00 AM86 °FSunny.8 mph75%29.80 "Hg10 mi
7:30 AM84 °FSunny.7 mph79%29.80 "Hg10 mi
7:00 AM84 °FSunny.2 mph84%29.80 "Hg10 mi
1:00 AM81 °FPassing clouds.1 mph94%29.74 "HgN/A
12:30 AM82 °FPassing clouds.7 mph84%29.74 "HgN/A
12:00 AM82 °FPassing clouds.6 mph84%29.74 "HgN/A
11:30 PM
Fri, May 29
82 °FPassing clouds.8 mph84%29.74 "HgN/A
11:00 PM82 °FPassing clouds.7 mph84%29.74 "HgN/A
10:30 PM84 °FPassing clouds.6 mph79%29.74 "HgN/A
10:00 PM84 °FPassing clouds.6 mph79%29.74 "HgN/A
9:30 PM84 °FPassing clouds.6 mph79%29.74 "HgN/A
8:00 PM84 °FPassing clouds.6 mph79%29.71 "HgN/A
7:30 PM86 °FPassing clouds.9 mph75%29.68 "HgN/A
7:00 PM86 °FPassing clouds.7 mph70%29.68 "HgN/A
6:30 PM88 °FPassing clouds.9 mph66%29.68 "HgN/A
6:00 PM90 °FScattered clouds.10 mph63%29.65 "HgN/A
5:30 PM90 °FScattered clouds.12 mph63%29.65 "HgN/A
4:30 PM90 °FScattered clouds.9 mph67%29.65 "HgN/A
4:00 PM91 °FScattered clouds.15 mph52%29.65 "HgN/A
3:30 PM91 °FScattered clouds.18 mph56%29.65 "HgN/A
3:00 PM97 °FScattered clouds.3 mph42%29.65 "HgN/A
2:30 PM97 °FScattered clouds.5 mph42%29.65 "HgN/A
2:00 PM97 °FScattered clouds.2 mph42%29.65 "HgN/A
1:00 PM97 °FScattered clouds.3 mph39%29.68 "HgN/A
12:30 PM95 °FScattered clouds.5 mph53%29.71 "HgN/A
12:00 PM93 °FScattered clouds.5 mph59%29.74 "HgN/A
11:30 AM91 °FPassing clouds.3 mph59%29.74 "HgN/A
11:00 AM91 °FPassing clouds.5 mph63%29.74 "HgN/A
Weather by CustomWeather, © 2015

See weather overviewHow to use our weather pages